Location: Esp�s Alto
(42.4476°N, 0.5876°E)
Time: 00:46:37
(UTC+00:00)

Nadezhda 3 Rocket - Pass Details

Date: 22 October 2019
Orbit: 957 x 999 km, 82.9° (Epoch: 16 November)

Event Time Altitude Azimuth Distance (km) Brightness Sun altitude
Rises 04:08:28 0° 353° (N) 3,731 7.1 -24.6°
Reaches altitude 10° 04:11:01 10° 356° (N) 2,775 6.4 -24.1°
Maximum altitude 04:17:24 73° 81° (E) 1,037 4.2 -23.0°
Drops below altitude 10° 04:23:41 10° 166° (SSE) 2,737 6.4 -21.8°
Sets 04:26:11 0° 169° (SSE) 3,675 7.1 -21.3°
